Temp
21 22 21 20 18 18 18 18 18 18 19 19 19 19 19 18 18 19 20 20 20 21 21 21 22 23 24 25 25 24 24 25 26 23 22 21 21 22 21 20 19 20 20
21 22 22 21 19 19 19 18 19 19 19 19 19 19 19 18 18 19 19 19 19 20 21 21 22 23 22 23 23 24 24 24 24 23 20 20 20 19 19 19 20 18 18
22 21 21 21 21 20 20 19 18 18 18 18 18 18 19 18 17 18 17 18 19 19 19 19 20 20 21 21 23 22 23 23 23 22 20 20 19 18 18 19 18 18 18
22 21 22 22 22 21 21 20 19 18 18 17 18 18 17 17 17 17 17 17 17 17 18 18 19 19 20 21 21 21 21 21 22 21 20 20 20 19 20 20 19 20 19
23 22 22 22 22 22 21 20 20 18 18 18 18 17 17 17 17 17 17 16 16 16 16 17 17 18 18 19 20 20 20 21 21 20 20 20 20 20 20 19 21 20 18
23 24 23 22 22 21 21 21 20 20 20 19 19 18 18 17 17 17 17 16 15 15 15 16 16 17 18 19 19 18 19 20 20 21 20 19 17 18 18 19 19 20 20
23 24 23 22 22 22 21 22 21 21 20 20 19 18 17 15 17 17 17 16 15 14 15 15 16 16 17 17 17 17 17 18 17 18 18 18 16 15 16 17 16 17 18
23 24 23 23 22 22 23 21 19 19 18 16 16 16 14 14 15 16 17 17 16 16 16 16 15 15 16 17 16 15 13 15 16 15 14 13 13 13 13 14 14 15 16
22 23 23 21 19 19 18 18 17 17 16 15 15 14 13 13 14 15 17 16 14 12 13 13 13 14 15 16 15 14 13 12 12 12 12 12 12 12 13 14 15 15 16
21 22 21 16 14 14 14 14 15 15 14 14 13 12 11 11 14 15 16 15 14 13 11 12 13 13 14 15 15 15 14 13 13 12 11 11 11 11 11 10 12 13 14
14 13 13 12 11 11 11 12 12 12 12 11 9 9 8 9 11 13 14 14 14 12 11 9 10 11 12 12 12 13 11 11 11 12 13 13 12 12 12 11 10 10 12
10 10 10 10 9 9 9 8 9 9 7 7 7 6 6 8 9 9 10 10 10 9 8 8 8 9 10 10 10 10 10 11 12 12 13 14 13 13 12 11 9 9 9
9 8 8 8 8 8 7 7 7 7 7 6 6 6 5 6 6 7 7 7 7 8 7 7 8 8 8 8 9 10 10 12 13 13 14 13 12 11 10 11 11 10 9
8 8 8 8 8 8 8 8 7 7 7 6 6 5 5 6 6 6 6 7 7 7 7 7 8 9 9 9 9 9 9 9 9 11 11 11 11 11 11 11 11 11 11
9 9 9 9 8 8 8 7 8 8 8 7 7 6 6 6 6 7 8 8 8 8 9 10 10 10 10 10 9 9 9 9 10 10 10 10 10 10 10 10 10 10 11
10 10 10 10 9 9 8 8 8 8 8 8 8 8 7 7 7 7 7 7 8 9 10 10 10 11 10 10 10 10 10 9 9 9 9 9 9 9 9 9 10 10 10
12 11 11 10 10 10 11 11 9 7 8 7 7 7 8 7 7 7 7 8 9 9 11 10 10 9 9 9 9 9 9 8 7 9 9 9 9 9 9 10 10 10 10
14 13 13 14 14 15 15 14 14 13 11 9 7 7 7 7 7 7 8 8 11 11 11 11 11 10 10 10 10 9 9 9 9 8 8 8 8 8 9 9 9 9 8
16 16 17 17 17 16 16 16 15 14 13 11 9 7 7 8 8 9 9 9 12 12 12 11 10 10 10 9 9 8 8 8 7 8 8 8 8 8 8 8 8 7 7
17 16 17 16 16 17 17 17 16 15 15 14 14 13 11 9 9 12 12 11 12 12 11 11 10 10 9 8 8 8 9 8 8 8 8 7 7 7 8 8 8 8 8
17 16 15 17 17 16 16 15 15 15 15 14 13 10 10 11 13 12 12 11 11 11 10 10 10 10 9 9 8 8 8 8 8 7 7 7 7 7 7 7 8 8 8
17 17 17 16 15 15 15 14 13 12 14 13 12 10 10 11 12 12 11 11 10 10 9 9 9 9 9 8 7 7 8 8 7 6 6 6 6 7 7 6 7 7 7
18 18 17 16 14 14 14 12 13 14 14 13 13 13 12 12 11 11 10 10 9 9 9 8 8 9 9 8 8 7 8 7 6 5 5 5 6 6 5 6 7 7 7
17 17 17 17 15 14 14 14 14 13 14 14 13 12 12 11 11 10 9 9 9 9 9 9 9 8 8 8 7 7 6 6 5 5 4 4 5 6 5 6 6 6 6
18 17 17 17 16 15 15 15 15 14 13 13 13 12 12 11 10 10 9 9 9 9 9 9 8 7 7 7 6 6 5 4 3 3 2 3 4 5 6 6 6 6 6
17 16 16 16 16 16 15 15 14 14 14 13 12 12 11 11 10 10 9 9 9 9 9 8 7 7 6 6 4 4 4 4 3 3 2 2 4 5 5 5 5 6 7
Height
778 778 777 778 777 776 776 776 776 776 777 778 779 780 783 787 790 794 797 800 803 806 809 811 812 811 810 811 812 813 814 814 811 815 819 819 819 822 825 827 828 829 831
778 778 778 779 780 780 780 780 780 780 781 782 784 784 786 789 792 794 797 800 803 806 808 808 808 810 812 812 812 812 813 812 813 815 818 821 821 824 826 828 831 832 831
779 780 780 779 780 781 782 782 783 783 783 785 787 788 789 791 793 796 798 799 802 805 808 809 811 811 812 812 811 812 811 813 813 814 819 822 824 825 827 829 831 832 834
778 780 780 780 780 780 782 783 784 785 786 787 788 789 790 792 795 798 799 802 805 808 810 812 814 815 814 813 812 812 811 812 813 815 816 821 823 825 826 828 831 832 834
777 777 780 781 781 781 782 784 785 786 788 789 791 792 793 795 797 799 801 804 806 809 812 814 815 815 815 814 814 814 814 812 812 815 817 819 821 824 825 828 827 831 834
775 776 779 782 782 783 784 785 787 788 789 790 792 794 796 799 801 803 804 805 808 811 813 815 815 815 815 815 815 815 813 814 813 814 817 820 824 825 827 827 828 829 829
773 775 778 782 782 784 785 786 787 790 791 792 794 796 798 799 802 805 807 809 811 813 815 816 816 818 819 820 819 817 816 816 817 817 819 823 827 829 830 830 830 831 830
770 772 776 780 782 783 784 787 790 793 795 795 798 800 800 800 802 806 809 811 814 816 818 819 818 820 821 822 822 821 820 820 821 822 825 828 828 831 830 832 832 833 832
769 770 774 778 784 786 788 791 793 795 798 800 804 805 805 805 806 808 811 813 816 817 818 820 821 821 822 823 824 825 826 826 827 827 827 829 831 832 832 832 831 832 831
768 769 774 781 785 787 792 793 796 798 802 806 809 811 811 811 811 812 813 816 819 820 822 822 823 824 824 824 827 827 829 832 832 832 831 832 833 833 834 834 834 834 833
769 773 777 783 788 793 796 798 801 804 806 808 813 816 817 817 816 817 816 818 821 823 825 827 827 828 828 829 830 830 831 833 835 835 833 833 834 835 835 835 836 836 835
775 778 783 788 791 797 801 803 806 807 811 812 814 820 820 822 822 823 823 823 824 825 827 829 830 831 830 831 833 835 836 836 835 835 833 832 833 834 835 835 834 835 836
780 785 790 795 799 802 805 809 811 813 817 819 819 821 825 825 825 825 827 826 826 828 829 830 831 834 834 834 836 836 837 836 835 834 832 833 834 835 835 834 833 831 830
790 794 799 804 806 811 813 817 820 818 823 825 827 827 830 830 831 831 829 831 833 834 833 834 836 836 837 839 838 838 838 839 839 838 837 836 836 835 835 833 833 831 829
800 805 808 812 815 818 822 826 823 825 828 830 831 832 833 832 834 835 834 836 837 837 836 837 837 839 840 840 841 841 841 842 840 841 840 838 836 837 835 834 833 831 829
806 812 816 820 823 825 826 828 831 833 833 834 835 835 837 837 837 838 838 838 838 838 839 838 839 840 841 841 841 841 841 843 842 841 840 839 838 838 836 834 832 830 830
812 817 821 824 826 827 830 832 835 840 840 839 839 840 840 840 841 841 841 841 841 839 840 841 843 844 845 844 844 843 843 844 843 843 842 840 839 838 836 833 831 830 830
818 821 823 825 826 824 827 830 832 835 839 843 844 844 844 844 844 843 843 842 841 840 841 842 842 843 843 843 843 843 843 843 842 843 842 840 839 837 834 832 832 832 832
818 820 820 821 823 824 826 828 830 833 837 841 844 846 846 845 844 844 843 842 841 841 841 842 844 844 844 844 844 845 845 844 845 843 841 840 838 837 835 834 832 832 833
819 821 821 825 826 826 827 828 831 833 834 835 836 838 841 842 843 841 843 843 842 842 842 842 843 844 845 846 845 845 843 843 842 842 841 841 839 837 835 834 832 831 829
822 825 825 823 825 829 831 832 834 835 835 836 839 843 843 841 841 842 842 843 844 844 844 845 843 843 844 844 845 845 843 842 842 842 842 840 839 837 836 834 832 830 829
821 823 822 826 829 831 832 835 838 840 838 839 841 844 844 843 842 844 844 845 846 846 846 846 844 844 844 845 846 845 843 842 843 843 842 840 839 837 836 835 832 830 829
820 820 822 826 830 832 833 836 837 836 836 838 838 840 842 843 844 845 846 846 847 847 847 847 846 845 844 845 845 844 843 843 844 844 842 841 839 837 837 835 832 830 829
820 822 821 822 826 830 831 832 834 835 835 837 839 841 842 844 844 845 847 847 847 847 846 845 844 845 844 844 844 843 843 842 844 844 844 842 839 838 837 834 831 830 828
818 820 820 820 823 827 828 829 831 833 836 837 838 840 841 843 844 845 846 847 846 845 844 845 844 845 845 844 843 843 842 843 843 842 842 841 839 838 835 833 832 830 827
819 821 820 820 821 823 825 827 830 832 833 835 836 838 840 841 842 844 845 845 844 844 845 845 845 845 844 843 843 842 842 842 842 841 839 840 838 836 835 834 831 828 825
Wind_Speed
5 3 3 6 9 10 12 11 11 11 9 9 10 12 14 13 12 13 14 14 12 11 10 12 11 8 7 7 7 5 8 9 9 15 10 6 9 6 10 9 8 10 11
3 1 2 6 4 6 8 8 8 9 9 10 9 9 10 12 12 11 10 9 8 4 2 2 6 9 9 10 6 6 6 5 8 9 10 8 9 8 9 9 9 7 10
3 2 1 6 4 3 3 5 5 7 10 10 11 10 10 10 11 12 12 13 11 8 5 1 5 8 3 4 3 3 3 2 4 3 8 6 8 9 9 8 8 9 7
3 5 3 5 5 4 4 4 5 8 10 11 12 13 14 15 14 14 14 13 11 7 2 2 5 4 1 1 1 1 4 5 7 6 14 13 10 8 7 8 8 7 5
7 10 6 4 5 7 7 8 7 8 7 9 12 13 14 15 14 13 11 9 8 5 3 4 3 3 2 0 2 3 6 6 4 7 12 11 10 10 6 2 2 4 2
6 7 8 6 6 11 9 10 9 9 7 8 11 13 12 10 10 9 10 10 9 9 8 9 9 8 6 1 2 2 1 2 3 8 7 10 7 5 3 2 2 4 7
9 10 10 8 8 11 12 11 10 9 9 8 8 10 11 7 11 11 9 9 9 8 8 7 8 8 8 8 10 12 13 14 12 14 13 10 8 5 4 0 4 1 2
12 13 13 12 11 10 8 8 8 9 13 19 16 13 13 13 12 12 11 11 11 10 9 7 10 7 7 6 8 12 14 15 15 14 14 12 9 7 5 3 2 4 7
16 15 15 12 7 8 9 9 11 13 18 18 15 13 14 15 14 14 13 14 13 12 12 12 10 11 9 10 10 12 13 14 15 16 15 11 8 7 7 6 3 6 7
10 13 14 17 14 15 15 15 16 19 18 17 16 16 16 14 13 14 11 12 13 14 15 15 14 12 9 10 8 9 10 9 8 8 10 10 8 8 10 8 6 7 9
23 22 22 18 16 13 14 18 17 18 22 22 20 19 19 18 15 10 14 11 11 13 14 15 18 13 12 10 8 10 11 5 5 3 3 3 4 4 4 6 6 7 10
25 25 25 22 19 17 16 18 19 22 21 23 24 20 21 22 22 21 20 18 16 17 17 14 15 12 9 8 8 8 4 2 1 3 3 2 5 7 7 7 5 5 6
31 31 29 28 27 27 28 27 27 24 21 17 21 23 20 19 19 18 17 15 14 13 14 15 16 13 12 12 10 7 8 8 8 8 7 6 6 6 7 5 6 6 9
32 32 30 29 29 27 25 21 20 23 19 17 16 19 17 17 17 16 16 15 14 14 13 13 11 9 9 7 7 7 7 7 6 8 7 6 6 6 6 6 7 7 8
28 27 26 24 24 25 24 21 26 23 21 20 18 14 13 14 11 8 7 6 5 6 7 6 6 5 5 4 5 5 5 5 4 5 5 6 5 6 5 7 6 6 7
29 27 26 25 24 24 25 25 22 20 17 16 16 15 15 15 12 10 10 10 9 6 6 6 5 5 5 5 5 4 4 5 5 5 5 6 7 7 7 8 6 7 7
24 23 21 19 20 23 21 20 21 18 18 18 17 15 13 13 12 13 13 11 6 4 6 7 6 5 5 4 4 4 5 4 3 5 5 6 7 7 8 7 7 7 8
23 22 20 16 13 14 14 15 14 13 13 11 11 11 10 9 8 6 4 3 3 5 6 6 5 3 2 3 4 5 6 7 5 5 6 7 8 8 8 7 7 6 8
18 14 12 11 11 10 10 10 10 9 9 8 9 8 6 9 11 6 3 4 6 5 5 5 4 5 5 6 6 5 5 4 4 6 7 8 8 8 8 8 8 3 5
10 8 11 9 9 8 6 7 6 4 3 4 4 5 7 6 8 3 4 5 5 5 6 5 4 3 5 5 5 5 5 5 5 7 8 8 8 8 9 8 8 8 8
12 8 5 2 6 5 2 1 2 5 3 6 7 4 2 6 4 4 6 6 7 7 7 6 7 6 4 3 5 5 4 5 6 7 9 9 9 9 9 9 8 8 8
9 5 4 7 5 6 5 1 4 3 3 1 5 4 4 3 3 4 5 6 6 6 6 5 6 6 5 5 5 6 6 5 7 8 9 10 10 10 9 9 9 8 9
4 0 4 7 11 7 2 12 7 5 4 4 3 3 2 2 3 3 3 4 5 4 5 5 5 6 5 4 6 6 7 6 6 10 10 10 10 9 10 10 9 9 9
3 4 6 7 10 10 14 6 8 2 2 2 4 2 1 1 2 2 3 4 4 4 4 6 6 6 6 7 7 7 8 2 3 10 10 9 9 9 10 9 9 8 9
2 5 6 6 5 7 7 6 3 4 6 5 4 3 3 2 2 3 3 2 3 4 5 6 6 7 7 8 8 5 3 6 8 12 7 8 8 9 9 9 9 10 9
4 5 7 4 4 4 4 5 5 5 5 5 5 4 4 5 4 3 3 3 5 3 2 7 6 7 6 6 4 4 7 10 7 9 7 5 7 8 9 10 9 10 10
Wind_Direction
295 313 55 95 83 68 68 64 79 87 103 100 111 134 142 142 148 166 168 160 157 167 191 204 215 248 269 279 242 243 265 250 265 146 148 114 104 126 137 121 124 159 177
282 266 122 130 125 68 85 93 82 95 103 106 101 111 126 141 152 146 136 146 143 154 206 275 257 235 220 265 277 256 243 204 281 138 134 127 103 111 124 132 129 125 137
219 220 209 181 173 164 125 132 116 124 122 120 112 111 119 134 137 136 137 144 138 118 103 54 323 323 287 303 218 174 172 235 275 49 121 115 135 134 127 131 125 132 130
202 235 175 173 164 165 164 165 137 144 136 133 129 123 120 128 132 137 143 142 149 141 92 332 303 318 217 352 345 298 241 254 231 166 148 160 152 161 157 152 153 170 156
191 229 162 147 156 136 121 116 103 119 131 136 139 133 134 141 142 142 139 144 151 155 185 171 133 41 9 106 235 275 263 232 207 181 164 161 162 169 156 162 162 158 182
220 208 165 167 144 136 130 125 119 115 118 134 141 140 142 129 153 155 162 171 182 191 171 137 115 107 98 29 232 185 123 205 158 192 155 130 102 115 120 147 191 224 185
208 206 173 190 169 164 159 160 140 124 122 101 98 105 85 89 159 168 172 151 146 149 147 136 119 102 97 97 82 72 70 73 70 73 89 97 93 53 49 232 48 328 271
210 205 184 188 184 184 173 122 104 98 85 82 78 75 76 90 117 140 133 125 120 113 101 98 102 109 114 106 89 74 67 78 81 81 89 88 100 74 60 38 352 306 283
216 197 187 160 131 109 97 101 98 98 90 86 84 79 75 84 110 124 126 121 113 97 95 98 96 106 102 88 94 89 84 83 82 83 87 82 69 46 28 8 25 325 308
199 149 138 113 105 107 98 93 97 100 93 90 82 77 75 71 109 116 126 121 111 102 83 79 80 82 93 96 89 100 89 68 81 72 54 49 44 26 22 37 7 329 315
104 103 112 109 100 106 110 102 95 97 100 96 86 73 70 68 85 102 103 106 112 102 88 74 70 69 75 78 73 98 97 86 60 52 41 36 13 349 1 6 348 336 317
105 99 100 101 101 103 108 104 104 105 94 97 93 84 75 75 74 74 76 85 96 97 89 80 70 54 51 68 71 75 68 98 232 247 269 345 2 340 337 326 322 310 302
95 95 98 99 99 102 98 98 101 99 97 86 91 87 76 79 77 74 68 71 74 86 87 85 84 77 60 60 66 58 0 331 340 320 343 336 346 336 326 295 307 268 275
92 93 95 95 97 95 95 92 98 98 95 93 91 89 86 78 75 72 70 66 70 77 82 80 83 76 76 59 40 31 24 15 334 345 342 338 326 324 316 337 321 329 321
98 95 91 92 91 91 92 93 92 91 95 96 91 88 84 79 77 63 88 97 92 113 87 80 75 67 62 53 44 37 30 359 360 355 344 347 333 334 345 335 328 324 320
102 101 103 105 105 101 96 88 84 89 92 95 96 96 91 90 87 87 93 104 106 94 89 85 76 67 50 42 28 28 41 13 357 346 344 349 343 332 349 313 327 332 322
112 116 115 116 121 118 110 105 103 90 95 93 90 95 97 95 92 99 98 95 71 45 74 58 56 49 48 45 28 14 2 3 318 329 334 334 330 327 321 330 334 326 329
115 122 124 128 134 130 121 126 125 121 110 99 86 86 80 82 96 111 114 128 181 83 69 50 47 23 19 5 358 355 349 327 351 341 327 333 331 332 328 332 324 350 334
138 140 140 133 108 107 111 109 106 101 107 130 140 128 113 113 113 92 15 286 31 41 32 51 33 9 357 356 356 346 331 359 336 326 337 340 337 328 325 325 319 283 311
98 83 107 115 148 133 127 108 88 105 85 78 92 79 151 187 213 164 67 30 13 7 7 357 17 13 353 354 334 336 331 335 345 341 343 335 334 329 327 325 318 323 318
123 140 298 153 107 87 50 45 47 3 359 47 77 35 14 330 41 47 13 15 4 350 346 346 330 356 334 0 358 329 332 340 352 347 339 334 333 327 326 322 316 314 314
151 172 182 143 169 189 186 97 98 239 316 332 113 92 147 300 24 11 4 357 358 352 352 344 329 341 339 352 336 346 328 347 356 347 337 332 328 327 329 322 314 318 316
196 236 156 141 143 151 159 190 198 253 175 170 165 142 179 21 349 352 348 354 348 350 356 346 332 326 324 320 308 302 305 329 352 343 334 328 321 327 321 311 320 317 326
186 257 261 191 172 185 190 203 196 264 19 191 175 205 261 300 319 43 317 345 343 335 324 332 329 324 317 305 302 300 329 76 317 333 324 313 313 323 322 315 317 323 316
255 250 245 190 165 222 172 232 163 183 193 210 215 221 242 264 279 282 307 303 300 308 0 345 359 341 326 316 300 307 292 318 327 319 321 310 309 313 310 319 330 320 320
243 231 255 260 214 205 209 187 201 206 230 213 226 237 253 245 238 266 257 243 303 336 11 14 18 358 353 51 52 289 305 312 313 321 327 313 309 320 329 324 323 319 323